NSS-11 1 26554U 00059A 26195.09491362 .00000016 00000+0 00000+0 0 9998 2 26554 2.1938 81.0693 0002821 36.3305 24.7259 1.00270795 41563 AMC-6 1 26580U 00067A 26195.21314612 .00000082 00000+0 00000+0 0 9995 2 26580 0.2190 83.6511 0003794 42.5067 107.6001 1.00270461 94162 AMC-15 1 28446U 04041A 26195.21280721 -.00000095 00000+0 00000+0 0 9992 2 28446 0.0292 314.2197 0002094 151.9560 157.4641 1.00270811 79574 NSS-10 1 28526U 05003A 26195.05262009 -.00000263 00000+0 00000+0 0 9998 2 28526 6.5146 70.1233 0002620 40.3492 162.9359 1.00270358 53420 ASTRA 1KR 1 29055U 06012A 26195.13508836 .00000112 00000+0 00000+0 0 9999 2 29055 0.5412 83.1711 0003284 22.1984 254.2576 1.00269879 45966 ASTRA 1L 1 31306U 07016A 26195.12642163 -.00000192 00000+0 00000+0 0 9996 2 31306 1.3890 81.3587 0005184 33.7399 197.8978 1.00271254 45257 ASTRA 4A 1 32299U 07057A 26195.06094014 .00000026 00000+0 00000+0 0 9997 2 32299 0.0434 284.1732 0002264 194.9752 199.5054 1.00270919 51914 ASTRA 1M 1 33436U 08057A 26195.13517501 .00000114 00000+0 00000+0 0 9999 2 33436 0.3635 82.7479 0004399 41.0333 236.2670 1.00268927 46005 NSS-9 1 33749U 09008A 26195.16758850 .00000064 00000+0 00000+0 0 9994 2 33749 1.3292 82.3890 0001837 20.4550 72.5776 1.00271545 63794 SES-7 (PROTOSTAR 2) 1 34941U 09027A 26195.01017616 -.00000350 00000+0 00000+0 0 9991 2 34941 0.0293 64.0632 0000552 170.2273 169.4796 1.00268739 62895 NSS-12 1 36032U 09058A 26195.14262838 .00000065 00000+0 00000+0 0 9992 2 36032 0.0961 269.4411 0004632 167.6444 323.2565 1.00273585 61189 SES-1 1 36516U 10016A 26195.11127419 -.00000121 00000+0 00000+0 0 9991 2 36516 0.0388 289.4003 0002369 182.2272 119.4004 1.00271639 59307 ASTRA 3B 1 36581U 10021A 26195.13595501 .00000129 00000+0 00000+0 0 9999 2 36581 1.5369 83.2309 0004438 20.0549 261.1624 1.00269677 59131 SES-3 1 37748U 11035A 26195.12419140 -.00000109 00000+0 00000+0 0 9993 2 37748 1.3939 82.7881 0001913 31.1777 119.7431 1.00271337 54863 ASTRA 1N 1 37775U 11041A 26194.77865382 .00000115 00000+0 00000+0 0 9999 2 37775 0.0604 5.8301 0005677 109.5149 115.8161 1.00270585 44797 SES-2 1 37809U 11049A 26195.22505837 -.00000202 00000+0 00000+0 0 9990 2 37809 0.1255 91.1704 0002697 22.4608 172.4742 1.00270429 54236 QUETZSAT 1 1 37826U 11054A 26195.18936087 -.00000248 00000+0 00000+0 0 9995 2 37826 0.0099 32.9306 0002564 89.3048 160.9988 1.00271376 50146 SES-4 1 38087U 12007A 26195.12694163 -.00000175 00000+0 00000+0 0 9993 2 38087 0.0188 61.9615 0002448 53.1902 200.5398 1.00269971 52493 SES-5 1 38652U 12036A 26195.06102681 .00000028 00000+0 00000+0 0 9991 2 38652 0.0474 318.3877 0001977 158.0260 202.4607 1.00271811 44723 ASTRA 2F 1 38778U 12051A 26195.13690836 .00000143 00000+0 00000+0 0 9997 2 38778 0.0927 256.6715 0002869 287.8880 184.9013 1.00268347 41407 SES-6 1 39172U 13026A 26194.83814566 -.00000267 00000+0 00000+0 0 9991 2 39172 0.0272 324.6493 0002141 148.6357 79.6458 1.00264955 47998 O3B FM5 1 39188U 13031A 26195.02520245 -.00000021 00000+0 00000+0 0 9992 2 39188 0.0951 335.6513 0002818 122.4054 261.9724 5.00115591238381 O3B FM4 1 39189U 13031B 26194.94475384 -.00000021 00000+0 00000+0 0 9996 2 39189 0.0405 347.2973 0004917 109.3303 263.4254 5.00115560238389 O3B FM2 1 39190U 13031C 26194.81033501 -.00000021 00000+0 00000+0 0 9995 2 39190 0.0351 343.9740 0002719 124.0536 251.9992 5.00116019238444 O3B PFM 1 39191U 13031D 26195.02434644 -.00000021 00000+0 00000+0 0 9993 2 39191 0.0669 346.7812 0005273 117.1502 256.1243 5.00115928238019 ASTRA 2E 1 39285U 13056A 26195.13690836 .00000144 00000+0 00000+0 0 9998 2 39285 0.0783 311.9423 0002707 154.4493 263.3871 1.00268682 46683 SES-8 1 39460U 13071A 26195.07888022 -.00000275 00000+0 00000+0 0 9995 2 39460 0.0597 258.7073 0002582 215.5045 301.1253 1.00270303 44690 ASTRA 5B 1 39617U 14011B 26195.13595501 .00000130 00000+0 00000+0 0 9997 2 39617 0.0793 300.7445 0001817 179.9654 243.7297 1.00267310 44932 O3B FM3 1 40079U 14038A 26195.09103561 -.00000022 00000+0 00000+0 0 9997 2 40079 0.0477 352.7527 0002671 173.2649 193.9867 5.00115699214397 O3B FM7 1 40080U 14038B 26194.63737883 -.00000021 00000+0 00000+0 0 9997 2 40080 0.0452 344.0341 0003602 96.7242 279.2797 5.00115629219201 O3B FM6 1 40081U 14038C 26195.06413250 -.00000021 00000+0 00000+0 0 9995 2 40081 0.0463 349.8089 0002607 122.3380 247.8778 5.00115704219168 O3B FM8 1 40082U 14038D 26194.91747796 -.00000021 00000+0 00000+0 0 9994 2 40082 0.0459 348.5259 0002736 123.7219 247.7783 5.00116062219284 O3B FM10 1 40348U 14083A 26190.34727304 -.00000010 00000+0 00000+0 0 9993 2 40348 0.0415 347.0289 0004898 105.1910 267.8366 5.00115429211009 O3B FM11 1 40349U 14083B 26194.95738316 -.00000021 00000+0 00000+0 0 9992 2 40349 0.0552 351.4203 0002538 104.0166 264.5891 5.00115497211256 O3B FM12 1 40350U 14083C 26194.98437352 -.00000021 00000+0 00000+0 0 9993 2 40350 0.0542 351.6631 0002501 117.1985 251.1626 5.00115945211254 O3B FM9 1 40351U 14083D 26194.81131000 -.00000021 00000+0 00000+0 0 9997 2 40351 0.0560 350.5768 0002676 119.5351 249.9141 5.00116002211409 ASTRA 2G 1 40364U 14089A 26195.13690836 .00000143 00000+0 00000+0 0 9994 2 40364 0.0509 24.0707 0004505 49.6030 295.8278 1.00267662 42231 SES-9 1 41380U 16013A 26195.01017616 -.00000351 00000+0 00000+0 0 9990 2 41380 0.0170 329.8378 0002126 136.2558 297.7537 1.00272221 37701 SES-10 1 42432U 17017A 26195.12101441 -.00000279 00000+0 00000+0 0 9995 2 42432 0.0159 42.6111 0002524 76.0299 150.0080 1.00268769 34025 SES-15 1 42709U 17026A 26195.21513838 .00000054 00000+0 00000+0 0 9999 2 42709 0.0272 326.7396 0000238 135.4975 138.1312 1.00268441 7707 SES-11 (ECHOSTAR 105) 1 42967U 17063A 26195.11058086 -.00000095 00000+0 00000+0 0 9990 2 42967 0.0404 295.3829 0002642 167.2119 124.2350 1.00270995 31999 SES-14 1 43175U 18012B 26195.12191494 -.00000285 00000+0 00000+0 0 9990 2 43175 0.0128 29.9471 0000817 96.1956 162.2255 1.00269903 7298 O3B FM15 1 43231U 18024A 26194.87812747 -.00000021 00000+0 00000+0 0 9996 2 43231 0.0528 359.8463 0002598 111.6274 248.5511 5.00115748152368 O3B FM16 1 43232U 18024B 26195.13034024 -.00000022 00000+0 00000+0 0 9992 2 43232 0.0532 4.1993 0002623 105.4834 250.3425 5.00115951152286 O3B FM14 1 43233U 18024C 26194.97126583 -.00000021 00000+0 00000+0 0 9995 2 43233 0.0520 5.3680 0002876 105.9000 248.7597 5.00115752152291 O3B FM13 1 43234U 18024D 26195.03714792 -.00000021 00000+0 00000+0 0 9999 2 43234 0.0512 324.1210 0002240 92.9111 302.9864 5.00115384152401 SES-12 1 43488U 18049A 26195.07888022 -.00000275 00000+0 00000+0 0 9990 2 43488 0.0106 8.0451 0000798 245.7978 161.5003 1.00270208 29681 O3B FM20 1 44112U 19020A 26194.99733100 -.00000021 00000+0 00000+0 0 9990 2 44112 0.0526 356.1084 0002358 108.8684 255.0463 5.00115583132916 O3B FM19 1 44113U 19020B 26194.02488125 -.00000019 00000+0 00000+0 0 9996 2 44113 0.0736 333.8772 0003731 117.5290 268.6344 5.00116218132736 O3B FM17 1 44114U 19020C 26194.90462606 -.00000021 00000+0 00000+0 0 9993 2 44114 0.0366 11.3237 0002573 99.4166 249.2843 5.00115611132862 O3B FM18 1 44115U 19020D 26194.85096938 -.00000021 00000+0 00000+0 0 9999 2 44115 0.0530 355.9137 0002743 116.4986 247.6139 5.00115301132980 SES-17 1 49332U 21095A 26195.12101436 -.00000278 00000+0 00000+0 0 9995 2 49332 0.0227 46.2886 0000762 72.0195 150.1390 1.00269024 18122 SES-22 1 52933U 22071A 26195.18385133 .00000098 00000+0 00000+0 0 9994 2 52933 0.0173 13.1174 0000781 92.7171 113.3753 1.00271029 7793 SES-20 1 53960U 22123A 26195.12419166 -.00000107 00000+0 00000+0 0 9993 2 53960 0.0158 63.6429 0001744 28.3369 141.6186 1.00269183 13805 SES-21 1 53961U 22123B 26195.03409625 .00000000 00000+0 00000+0 0 9994 2 53961 0.0398 36.9714 0001181 72.5492 63.7350 1.00270261 7488 O3B MPOWER F1 1 54755U 22174A 26194.64470438 -.00000021 00000+0 00000+0 0 9992 2 54755 0.0494 339.4621 0006624 143.6462 85.2988 5.00114743 66688 O3B MPOWER F2 1 54756U 22174B 26194.89551373 -.00000021 00000+0 00000+0 0 9998 2 54756 0.0452 339.8111 0005791 127.3284 252.9211 5.00114848 66785 SES-18 1 55970U 23038A 26195.12419221 -.00000107 00000+0 00000+0 0 9994 2 55970 0.0557 258.0124 0000830 311.3054 24.2918 1.00271595 12374 SES-19 1 55971U 23038B 26193.96403530 .00000086 00000+0 00000+0 0 9996 2 55971 0.0165 326.4823 0001595 156.8223 19.7105 1.00273078 12358 O3B MPOWER F4 1 56367U 23059A 26194.95974359 -.00000021 00000+0 00000+0 0 9991 2 56367 0.0629 350.1269 0007729 125.7903 244.1596 5.00115370 59944 O3B MPOWER F3 1 56368U 23059B 26194.99287816 -.00000021 00000+0 00000+0 0 9991 2 56368 0.0636 349.3969 0006674 119.8162 250.8563 5.00116385 56064 O3B MPOWER F5 1 58346U 23175A 26194.89398274 -.00000021 00000+0 00000+0 0 9998 2 58346 0.0521 9.2633 0005488 121.2581 229.5235 5.00115888 50777 O3B MPOWER F6 1 58347U 23175B 26194.99445977 -.00000021 00000+0 00000+0 0 9993 2 58347 0.0539 0.9404 0004432 110.1364 248.9676 5.00115749 49694 ASTRA 1P (SES-24) 1 60086U 24115A 26194.35091053 .00000118 00000+0 00000+0 0 9999 2 60086 0.0666 329.5187 0001497 236.9138 230.3347 1.00281209 7460 O3B MPOWER F7 1 62362U 24244A 26195.06086035 -.00000021 00000+0 00000+0 0 9998 2 62362 0.0660 343.0268 0005929 125.5087 251.5259 5.00115261 27865 O3B MPOWER F8 1 62363U 24244B 26195.02780939 -.00000021 00000+0 00000+0 0 9999 2 62363 0.0144 2.7768 0005765 98.4473 258.8377 5.00115010 22219 O3B MPOWER F9 1 64866U 25153A 26194.76130125 -.00000021 00000+0 00000+0 0 9995 2 64866 0.0612 5.7574 0006715 124.9740 229.3242 5.00115697 20892 O3B MPOWER F10 1 64867U 25153B 26195.12713370 -.00000022 00000+0 00000+0 0 9997 2 64867 0.0583 2.2706 0002433 245.2306 112.4699 5.00114868 23370